Location: Olomouc
(49.5830°N, 17.2500°E)
Time: 04:50:41
(UTC+01:00)

ISS - Pass Details

Date: 05 November 2021
Orbit: 417 x 423 km, 51.6° (Epoch: 01 December)

Event Time Altitude Azimuth Distance (km) Brightness Sun altitude
Exits shadow 04:42:09 85° 75° (ENE) 426 -3.8 -20.4°
Drops below altitude 10° 04:45:27 10° 107° (ESE) 1,498 0.1 -19.8°
Sets 04:47:33 0° 108° (ESE) 2,359 1.4 -19.5°
